Location: El Manguito
(10.2358°N, 67.3634°W)
Time: 21:46:54
(UTC+00:00)

Aurora 2 Rocket - Pass Details

Date: 10 December 2024
Orbit: 386 x 1590 km, 25.0° (Epoch: 12 January)

Event Time Altitude Azimuth Distance (km) Brightness Sun altitude
Exits shadow 10:09:05 - 292° (WNW) 2,641 5.1 -7.0°
Reaches altitude 10° 10:09:36 10° 292° (WNW) 2,446 4.9 -6.9°
Maximum altitude 10:15:15 78° 206° (SSW) 662 2.7 -5.6°
Drops below altitude 10° 10:19:18 10° 120° (ESE) 1,770 6.8 -4.7°
Sets 10:21:13 0° 118° (ESE) 2,540 8.5 -4.3°
